| time (UTC) | temp C | wind direction | speed KPH | gust KPH | rain 1hr cm | rain 24hr cm | rain mn cm | humidity % | barometer mb |
| 20260905043604 | 29 | 167 | 6.4 | 17.7 | 0.00 | 0.00 | 0.00 | 67 | 1010.1 |
| 20260905042704 | 29 | 168 | 6.4 | 16.1 | 0.00 | 0.00 | 0.00 | 67 | 1010.1 |
| 20260905041804 | 29 | 167 | 6.4 | 16.1 | 0.00 | 0.00 | 0.00 | 66 | 1010.1 |
| 20260905040904 | 30 | 166 | 6.4 | 16.1 | 0.00 | 0.00 | 0.00 | 65 | 1010.2 |
| 20260905040004 | 30 | 162 | 6.4 | 16.1 | 0.00 | 0.00 | 0.00 | 64 | 1010.2 |
| 20260905035404 | 30 | 165 | 4.8 | 12.9 | 0.00 | 0.00 | 0.00 | 63 | 1010.3 |
| 20260905034504 | 30 | 161 | 6.4 | 12.9 | 0.00 | 0.00 | 0.00 | 62 | 1010.3 |
| 20260905033604 | 30 | 163 | 8.0 | 16.1 | 0.00 | 0.00 | 0.00 | 61 | 1010.2 |
| 20260905032704 | 30 | 163 | 8.0 | 17.7 | 0.00 | 0.00 | 0.00 | 60 | 1010.2 |
| 20260905031804 | 30 | 165 | 6.4 | 19.3 | 0.00 | 0.00 | 0.00 | 60 | 1010.2 |
| 20260905030925 | 31 | 165 | 6.4 | 14.5 | 0.00 | 0.00 | 0.00 | 59 | 1010.1 |
| 20260905030004 | 31 | 162 | 8.0 | 17.7 | 0.00 | 0.00 | 0.00 | 58 | 1010.1 |
| 20260905025404 | 31 | 165 | 6.4 | 17.7 | 0.00 | 0.00 | 0.00 | 58 | 1010.0 |
| 20260905024504 | 31 | 167 | 6.4 | 16.1 | 0.00 | 0.00 | 0.00 | 57 | 1009.9 |
| 20260905023604 | 31 | 165 | 6.4 | 14.5 | 0.00 | 0.00 | 0.00 | 56 | 1009.7 |
| 20260905022704 | 31 | 166 | 6.4 | 14.5 | 0.00 | 0.00 | 0.00 | 55 | 1009.5 |
| 20260905021804 | 31 | 161 | 6.4 | 14.5 | 0.00 | 0.00 | 0.00 | 55 | 1009.3 |
| 20260905020904 | 32 | 159 | 6.4 | 14.5 | 0.00 | 0.00 | 0.00 | 54 | 1009.2 |
| 20260905020004 | 32 | 153 | 4.8 | 12.9 | 0.00 | 0.00 | 0.00 | 53 | 1009.0 |
| 20260905015404 | 32 | 152 | 4.8 | 11.3 | 0.00 | 0.00 | 0.00 | 52 | 1008.9 |
| 20260905014504 | 32 | 151 | 6.4 | 14.5 | 0.00 | 0.00 | 0.00 | 52 | 1008.8 |
| 20260905013604 | 32 | 148 | 6.4 | 14.5 | 0.00 | 0.00 | 0.00 | 51 | 1008.6 |
| 20260905012704 | 32 | 149 | 6.4 | 14.5 | 0.00 | 0.00 | 0.00 | 51 | 1008.5 |
| 20260905011804 | 33 | 151 | 4.8 | 11.3 | 0.00 | 0.00 | 0.00 | 50 | 1008.4 |
| 20260905010904 | 33 | 149 | 6.4 | 14.5 | 0.00 | 0.00 | 0.00 | 50 | 1008.4 |
| 20260905010025 | 33 | 150 | 6.4 | 14.5 | 0.00 | 0.00 | 0.00 | 49 | 1008.4 |
| 20260905005404 | 33 | 150 | 4.8 | 12.9 | 0.00 | 0.00 | 0.00 | 48 | 1008.3 |
| 20260905004504 | 33 | 157 | 6.4 | 12.9 | 0.00 | 0.00 | 0.00 | 48 | 1008.1 |
| 20260905003604 | 34 | 154 | 6.4 | 14.5 | 0.00 | 0.00 | 0.00 | 48 | 1008.1 |
| 20260905002704 | 34 | 154 | 4.8 | 16.1 | 0.00 | 0.00 | 0.00 | 47 | 1007.9 |
| 20260905001804 | 35 | 145 | 6.4 | 16.1 | 0.00 | 0.00 | 0.00 | 47 | 1007.8 |
| 20260905000904 | 35 | 144 | 8.0 | 20.9 | 0.00 | 0.00 | 0.00 | 46 | 1007.8 |
| 20260905000004 | 35 | 144 | 8.0 | 19.3 | 0.00 | 0.00 | 0.00 | 45 | 1007.7 |
| 20260904235425 | 35 | 148 | 9.7 | 20.9 | 0.00 | 0.00 | 0.00 | 45 | 1007.7 |
| 20260904234504 | 36 | 156 | 8.0 | 19.3 | 0.00 | 0.00 | 0.00 | 44 | 1007.7 |
| 20260904233604 | 36 | 159 | 6.4 | 16.1 | 0.00 | 0.00 | 0.00 | 44 | 1007.7 |
| 20260904232704 | 35 | 166 | 8.0 | 17.7 | 0.00 | 0.00 | 0.00 | 43 | 1007.7 |
| 20260904231804 | 36 | 155 | 6.4 | 17.7 | 0.00 | 0.00 | 0.00 | 42 | 1007.6 |
| 20260904230904 | 36 | 152 | 8.0 | 20.9 | 0.00 | 0.00 | 0.00 | 42 | 1007.5 |
| 20260904230025 | 37 | 150 | 8.0 | 20.9 | 0.00 | 0.00 | 0.00 | 41 | 1007.6 |
| 20260904225404 | 37 | 157 | 8.0 | 17.7 | 0.00 | 0.00 | 0.00 | 39 | 1007.6 |
| 20260904224504 | 37 | 154 | 8.0 | 17.7 | 0.00 | 0.00 | 0.00 | 38 | 1007.6 |
| 20260904223604 | 37 | 157 | 8.0 | 22.5 | 0.00 | 0.00 | 0.00 | 38 | 1007.7 |
| 20260904222725 | 38 | 160 | 4.8 | 14.5 | 0.00 | 0.00 | 0.00 | 38 | 1007.7 |
| 20260904221804 | 37 | 154 | 4.8 | 16.1 | 0.00 | 0.00 | 0.00 | 39 | 1007.8 |
| 20260904220904 | 37 | 161 | 8.0 | 16.1 | 0.00 | 0.00 | 0.00 | 39 | 1007.9 |
| 20260904220004 | 37 | 154 | 8.0 | 16.1 | 0.00 | 0.00 | 0.00 | 38 | 1007.9 |
| 20260904215404 | 38 | 145 | 6.4 | 16.1 | 0.00 | 0.00 | 0.00 | 39 | 1007.9 |
| 20260904214504 | 38 | 172 | 8.0 | 16.1 | 0.00 | 0.00 | 0.00 | 41 | 1008.0 |
| 20260904213604 | 38 | 176 | 6.4 | 17.7 | 0.00 | 0.00 | 0.00 | 41 | 1008.0 |
| 20260904212725 | 37 | 165 | 8.0 | 24.1 | 0.00 | 0.00 | 0.00 | 40 | 1008.2 |
| 20260904211804 | 37 | 158 | 6.4 | 20.9 | 0.00 | 0.00 | 0.00 | 41 | 1008.4 |
| 20260904210904 | 38 | 148 | 8.0 | 20.9 | 0.00 | 0.00 | 0.00 | 40 | 1008.4 |
| 20260904210004 | 38 | 163 | 6.4 | 17.7 | 0.00 | 0.00 | 0.00 | 40 | 1008.6 |
| 20260904205404 | 38 | 188 | 6.4 | 14.5 | 0.00 | 0.00 | 0.00 | 39 | 1008.6 |
| 20260904204504 | 38 | 152 | 6.4 | 17.7 | 0.00 | 0.00 | 0.00 | 38 | 1008.7 |
| 20260904203604 | 37 | 162 | 6.4 | 16.1 | 0.00 | 0.00 | 0.00 | 40 | 1008.8 |
| 20260904202704 | 37 | 158 | 6.4 | 17.7 | 0.00 | 0.00 | 0.00 | 41 | 1009.0 |
| 20260904201804 | 37 | 158 | 4.8 | 14.5 | 0.00 | 0.00 | 0.00 | 40 | 1009.0 |
| 20260904200904 | 37 | 169 | 8.0 | 19.3 | 0.00 | 0.00 | 0.00 | 42 | 1009.1 |
| 20260904200025 | 37 | 188 | 8.0 | 17.7 | 0.00 | 0.00 | 0.00 | 43 | 1009.3 |
| 20260904195425 | 36 | 179 | 6.4 | 19.3 | 0.00 | 0.00 | 0.00 | 43 | 1009.4 |
| 20260904194504 | 36 | 191 | 8.0 | 17.7 | 0.00 | 0.00 | 0.00 | 45 | 1009.6 |
| 20260904193604 | 36 | 151 | 6.4 | 20.9 | 0.00 | 0.00 | 0.00 | 43 | 1009.8 |
| 20260904192704 | 36 | 166 | 8.0 | 19.3 | 0.00 | 0.00 | 0.00 | 44 | 1009.9 |
| 20260904191824 | 36 | 167 | 4.8 | 12.9 | 0.00 | 0.00 | 0.00 | 44 | 1009.8 |
| 20260904190904 | 37 | 167 | 6.4 | 14.5 | 0.00 | 0.00 | 0.00 | 45 | 1010.0 |
| 20260904190004 | 36 | 159 | 6.4 | 14.5 | 0.00 | 0.00 | 0.00 | 46 | 1010.1 |
| 20260904185404 | 36 | 171 | 4.8 | 14.5 | 0.00 | 0.00 | 0.00 | 47 | 1010.1 |
| 20260904184525 | 35 | 173 | 6.4 | 19.3 | 0.00 | 0.00 | 0.00 | 47 | 1010.2 |
| 20260904183604 | 36 | 170 | 6.4 | 17.7 | 0.00 | 0.00 | 0.00 | 48 | 1010.4 |
| 20260904182704 | 36 | 154 | 6.4 | 17.7 | 0.00 | 0.00 | 0.00 | 50 | 1010.5 |
| 20260904181804 | 35 | 164 | 4.8 | 16.1 | 0.00 | 0.00 | 0.00 | 51 | 1010.7 |
| 20260904180924 | 35 | 186 | 6.4 | 17.7 | 0.00 | 0.00 | 0.00 | 52 | 1010.8 |
| 20260904180004 | 35 | 171 | 4.8 | 12.9 | 0.00 | 0.00 | 0.00 | 53 | 1010.9 |
| 20260904175403 | 35 | 181 | 6.4 | 14.5 | 0.00 | 0.00 | 0.00 | 53 | 1011.0 |
| 20260904174503 | 34 | 175 | 6.4 | 17.7 | 0.00 | 0.00 | 0.00 | 54 | 1011.1 |
| 20260904173604 | 33 | 181 | 4.8 | 14.5 | 0.00 | 0.00 | 0.00 | 57 | 1011.2 |
| 20260904172704 | 33 | 194 | 8.0 | 14.5 | 0.00 | 0.00 | 0.00 | 57 | 1011.4 |
| 20260904171804 | 33 | 201 | 6.4 | 19.3 | 0.00 | 0.00 | 0.00 | 59 | 1011.5 |
| 20260904170904 | 33 | 175 | 6.4 | 20.9 | 0.00 | 0.00 | 0.00 | 61 | 1011.5 |
| 20260904170004 | 32 | 206 | 6.4 | 17.7 | 0.00 | 0.00 | 0.00 | 61 | 1011.6 |
| 20260904165425 | 32 | 185 | 6.4 | 19.3 | 0.00 | 0.00 | 0.00 | 61 | 1011.6 |
| 20260904164504 | 32 | 170 | 8.0 | 19.3 | 0.00 | 0.00 | 0.00 | 63 | 1011.7 |
| 20260904163604 | 32 | 195 | 6.4 | 16.1 | 0.00 | 0.00 | 0.00 | 64 | 1011.7 |
| 20260904162704 | 31 | 192 | 8.0 | 22.5 | 0.00 | 0.00 | 0.00 | 65 | 1011.8 |
| 20260904161804 | 31 | 199 | 6.4 | 14.5 | 0.00 | 0.00 | 0.00 | 67 | 1011.8 |
| 20260904160904 | 31 | 183 | 8.0 | 20.9 | 0.00 | 0.00 | 0.00 | 69 | 1011.7 |
| 20260904160004 | 30 | 183 | 8.0 | 16.1 | 0.00 | 0.00 | 0.00 | 70 | 1011.7 |
| 20260904155404 | 30 | 185 | 8.0 | 19.3 | 0.00 | 0.00 | 0.00 | 71 | 1011.7 |
| 20260904154504 | 30 | 192 | 9.7 | 19.3 | 0.00 | 0.00 | 0.00 | 73 | 1011.7 |
| 20260904153604 | 29 | 191 | 12.9 | 22.5 | 0.00 | 0.00 | 0.00 | 74 | 1011.6 |
| 20260904152725 | 29 | 193 | 9.7 | 22.5 | 0.00 | 0.00 | 0.00 | 73 | 1011.6 |
| 20260904151803 | 29 | 188 | 11.3 | 24.1 | 0.00 | 0.00 | 0.00 | 73 | 1011.7 |
| 20260904150904 | 29 | 188 | 11.3 | 22.5 | 0.00 | 0.00 | 0.00 | 75 | 1011.5 |
| 20260904150004 | 28 | 176 | 8.0 | 20.9 | 0.00 | 0.00 | 0.00 | 75 | 1011.6 |
| 20260904145404 | 28 | 179 | 9.7 | 20.9 | 0.00 | 0.00 | 0.00 | 77 | 1011.6 |
| 20260904144504 | 28 | 176 | 8.0 | 17.7 | 0.00 | 0.00 | 0.00 | 80 | 1011.6 |
| 20260904143604 | 28 | 177 | 6.4 | 16.1 | 0.00 | 0.00 | 0.00 | 82 | 1011.8 |
| 20260904142704 | 27 | 192 | 6.4 | 17.7 | 0.00 | 0.00 | 0.00 | 82 | 1011.7 |
| 20260904141804 | 27 | 166 | 4.8 | 11.3 | 0.00 | 0.00 | 0.00 | 84 | 1011.7 |
| 20260904140904 | 27 | 158 | 4.8 | 12.9 | 0.00 | 0.00 | 0.00 | 85 | 1011.6 |
| 20260904140004 | 27 | 155 | 4.8 | 14.5 | 0.00 | 0.00 | 0.00 | 86 | 1011.6 |
| 20260904135403 | 27 | 155 | 4.8 | 12.9 | 0.00 | 0.00 | 0.00 | 86 | 1011.6 |
| 20260904134504 | 26 | 158 | 4.8 | 12.9 | 0.00 | 0.00 | 0.00 | 88 | 1011.5 |
| 20260904133603 | 26 | 158 | 3.2 | 8.0 | 0.00 | 0.00 | 0.00 | 89 | 1011.4 |
| 20260904132704 | 26 | 152 | 3.2 | 14.5 | 0.00 | 0.00 | 0.00 | 90 | 1011.3 |
| 20260904131803 | 25 | 154 | 4.8 | 12.9 | 0.00 | 0.00 | 0.00 | 90 | 1011.3 |
| 20260904130904 | 25 | 151 | 4.8 | 12.9 | 0.00 | 0.00 | 0.00 | 90 | 1011.1 |
| 20260904130004 | 25 | 153 | 3.2 | 12.9 | 0.00 | 0.00 | 0.00 | 90 | 1011.1 |
| 20260904125404 | 25 | 161 | 1.6 | 8.0 | 0.00 | 0.00 | 0.00 | 90 | 1011.0 |
| 20260904124504 | 25 | 152 | 1.6 | 6.4 | 0.00 | 0.00 | 0.00 | 90 | 1010.9 |
| 20260904123604 | 25 | 148 | 1.6 | 9.7 | 0.00 | 0.00 | 0.00 | 90 | 1010.9 |
| 20260904122704 | 25 | 154 | 4.8 | 12.9 | 0.00 | 0.00 | 0.00 | 90 | 1010.8 |
| 20260904121804 | 25 | 149 | 4.8 | 9.7 | 0.00 | 0.00 | 0.00 | 90 | 1010.6 |
| 20260904120903 | 25 | 149 | 1.6 | 9.7 | 0.00 | 0.00 | 0.00 | 90 | 1010.7 |
| 20260904120004 | 25 | 142 | 1.6 | 8.0 | 0.00 | 0.00 | 0.00 | 89 | 1010.6 |
| 20260904115404 | 25 | 152 | 1.6 | 8.0 | 0.00 | 0.00 | 0.00 | 89 | 1010.7 |
| 20260904114504 | 25 | 157 | 1.6 | 8.0 | 0.00 | 0.00 | 0.00 | 89 | 1010.5 |
| 20260904113604 | 25 | 159 | 0.0 | 1.6 | 0.00 | 0.00 | 0.00 | 89 | 1010.5 |
| 20260904112704 | 25 | 160 | 1.6 | 6.4 | 0.00 | 0.00 | 0.00 | 89 | 1010.4 |
| 20260904111804 | 25 | 145 | 1.6 | 3.2 | 0.00 | 0.00 | 0.00 | 88 | 1010.3 |
| 20260904110903 | 25 | 155 | 1.6 | 8.0 | 0.00 | 0.00 | 0.00 | 88 | 1010.5 |
| 20260904110004 | 25 | 163 | 1.6 | 8.0 | 0.00 | 0.00 | 0.00 | 88 | 1010.2 |
| 20260904105404 | 25 | 164 | 1.6 | 8.0 | 0.00 | 0.00 | 0.00 | 88 | 1010.2 |
| 20260904104524 | 25 | 160 | 1.6 | 6.4 | 0.00 | 0.00 | 0.00 | 88 | 1010.1 |
| 20260904103625 | 25 | 161 | 3.2 | 9.7 | 0.00 | 0.00 | 0.00 | 88 | 1010.1 |
| 20260904102704 | 25 | 159 | 1.6 | 6.4 | 0.00 | 0.00 | 0.00 | 88 | 1010.1 |
| 20260904101804 | 25 | 170 | 3.2 | 9.7 | 0.00 | 0.00 | 0.00 | 88 | 1010.0 |
| 20260904100904 | 25 | 162 | 3.2 | 9.7 | 0.00 | 0.00 | 0.00 | 88 | 1010.0 |
| 20260904100004 | 25 | 156 | 3.2 | 9.7 | 0.00 | 0.00 | 0.00 | 88 | 1010.0 |
| 20260904095404 | 25 | 162 | 3.2 | 9.7 | 0.00 | 0.00 | 0.00 | 88 | 1010.1 |
| 20260904094504 | 25 | 163 | 3.2 | 9.7 | 0.00 | 0.00 | 0.00 | 88 | 1010.0 |
| 20260904093603 | 25 | 160 | 3.2 | 9.7 | 0.00 | 0.00 | 0.00 | 88 | 1009.9 |
| 20260904092704 | 25 | 159 | 3.2 | 8.0 | 0.00 | 0.00 | 0.00 | 88 | 1009.9 |
| 20260904091804 | 25 | 162 | 3.2 | 9.7 | 0.00 | 0.00 | 0.00 | 88 | 1010.0 |
| 20260904090903 | 25 | 164 | 1.6 | 8.0 | 0.00 | 0.00 | 0.00 | 88 | 1009.9 |
| 20260904090024 | 25 | 163 | 3.2 | 9.7 | 0.00 | 0.00 | 0.00 | 88 | 1009.8 |
| 20260904085404 | 25 | 160 | 3.2 | 8.0 | 0.00 | 0.00 | 0.00 | 87 | 1009.9 |
| 20260904084504 | 25 | 159 | 3.2 | 9.7 | 0.00 | 0.00 | 0.00 | 87 | 1009.8 |
| 20260904083604 | 25 | 162 | 4.8 | 11.3 | 0.00 | 0.00 | 0.00 | 87 | 1009.8 |
| 20260904082704 | 25 | 162 | 4.8 | 12.9 | 0.00 | 0.00 | 0.00 | 87 | 1009.9 |
| 20260904081804 | 25 | 161 | 3.2 | 9.7 | 0.00 | 0.00 | 0.00 | 87 | 1009.8 |
| 20260904080924 | 25 | 162 | 4.8 | 11.3 | 0.00 | 0.00 | 0.00 | 87 | 1009.8 |
| 20260904080004 | 25 | 162 | 4.8 | 11.3 | 0.00 | 0.00 | 0.00 | 87 | 1009.9 |
| 20260904075404 | 25 | 162 | 4.8 | 11.3 | 0.00 | 0.00 | 0.00 | 87 | 1009.9 |
| 20260904074525 | 25 | 157 | 3.2 | 9.7 | 0.00 | 0.00 | 0.00 | 87 | 1009.9 |
| 20260904073625 | 25 | 150 | 3.2 | 9.7 | 0.00 | 0.00 | 0.00 | 87 | 1010.1 |
| 20260904072703 | 25 | 158 | 3.2 | 8.0 | 0.00 | 0.00 | 0.00 | 86 | 1010.1 |
| 20260904071825 | 25 | 153 | 1.6 | 8.0 | 0.00 | 0.00 | 0.00 | 86 | 1010.2 |
| 20260904070904 | 25 | 133 | 1.6 | 4.8 | 0.00 | 0.00 | 0.00 | 86 | 1010.2 |
| 20260904070004 | 25 | 146 | 1.6 | 6.4 | 0.00 | 0.00 | 0.00 | 86 | 1010.3 |
| 20260904065403 | 25 | 146 | 1.6 | 4.8 | 0.00 | 0.00 | 0.00 | 86 | 1010.2 |
| 20260904064504 | 25 | 154 | 0.0 | 6.4 | 0.00 | 0.00 | 0.00 | 85 | 1010.3 |
| 20260904063604 | 25 | 155 | 1.6 | 6.4 | 0.00 | 0.00 | 0.00 | 85 | 1010.3 |
| 20260904062725 | 25 | 156 | 3.2 | 8.0 | 0.00 | 0.00 | 0.00 | 85 | 1010.2 |
| 20260904061804 | 25 | 162 | 4.8 | 11.3 | 0.00 | 0.00 | 0.00 | 85 | 1010.2 |
| 20260904060903 | 25 | 154 | 3.2 | 9.7 | 0.00 | 0.00 | 0.00 | 84 | 1010.2 |
| 20260904060003 | 25 | 155 | 3.2 | 6.4 | 0.00 | 0.00 | 0.00 | 84 | 1010.3 |
| 20260904055404 | 25 | 154 | 3.2 | 9.7 | 0.00 | 0.00 | 0.00 | 84 | 1010.3 |
| 20260904054504 | 25 | 160 | 4.8 | 11.3 | 0.00 | 0.00 | 0.00 | 83 | 1010.3 |
| 20260904053604 | 25 | 163 | 4.8 | 12.9 | 0.00 | 0.00 | 0.00 | 83 | 1010.2 |
| 20260904052704 | 25 | 162 | 4.8 | 9.7 | 0.00 | 0.00 | 0.00 | 82 | 1010.2 |
| 20260904051804 | 25 | 149 | 4.8 | 11.3 | 0.00 | 0.00 | 0.00 | 81 | 1010.3 |
| 20260904050904 | 25 | 153 | 4.8 | 11.3 | 0.00 | 0.00 | 0.00 | 80 | 1010.3 |
| 20260904050025 | 25 | 149 | 3.2 | 9.7 | 0.00 | 0.00 | 0.00 | 80 | 1010.3 |
| 20260904045403 | 25 | 145 | 3.2 | 8.0 | 0.00 | 0.00 | 0.00 | 79 | 1010.3 |
| 20260904044504 | 25 | 145 | 3.2 | 8.0 | 0.00 | 0.00 | 0.00 | 78 | 1010.2 |